Location: Alpha Ridge Park
(39.3209°N, 76.9128°W)
Time: 15:06:17
(UTC-04:00)

Vanguard 2 Rocket - Pass Details

Date: 22 May 2019
Orbit: 554 x 3326 km, 32.9° (Epoch: 16 June)

Event Time Altitude Azimuth Distance (km) Brightness Sun altitude
Rises 08:34:39 0° 252° (WSW) 6,933 10.9 29.9°
Reaches altitude 10° 08:39:51 10° 249° (WSW) 5,610 10.5 31.0°
Maximum altitude 08:55:01 61° 175° (S) 2,106 9.3 33.9°
Drops below altitude 10° 09:03:36 10° 98° (E) 3,314 11.1 35.5°
Sets 09:05:53 0° 94° (E) 4,012 11.2 36.0°
